Location: Alafon
(8.4500°N, 4.2333°E)
Time: 17:16:35
(UTC+00:00)

SR - Pass Details

Date: 08 August 2021
Orbit: 581 x 874 km, 66.7° (Epoch: 18 September)

Event Time Altitude Azimuth Distance (km) Brightness Sun altitude
Rises 02:51:00 0° 203° (SSW) 3,433 - -38.7°
Reaches altitude 10° 02:53:28 10° 204° (SSW) 2,510 - -38.1°
Maximum altitude 02:59:20 77° 290° (WNW) 895 - -36.8°
Exits shadow 03:02:44 26° 12° (NNE) 1,627 ? -36.1°
Drops below altitude 10° 03:05:08 10° 16° (NNE) 2,480 ? -35.6°
Sets 03:07:34 0° 18° (NNE) 3,390 ? -35.0°
